This is the latest recevied weather packets stored in our database for station/object YO7ZRO-13. If no packets are shown the sender has not sent any weather packets the latest 10 day(s).
| Time | Temp. | Humidity | Pressure | Rain* | Wind** | Luminosity | Snow |
|---|---|---|---|---|---|---|---|
| 1787999323 | 31.11° C | 27% | 1015.7 hPa | - | - | - | - |
| 1787999263 | 31.11° C | 27% | 1015.7 hPa | - | - | - | - |
| 1787999201 | 31.11° C | 27% | 1015.7 hPa | - | - | - | - |
| 1787999141 | 30.56° C | 28% | 1015.7 hPa | - | - | - | - |
| 1787999082 | 30.56° C | 28% | 1015.7 hPa | - | - | - | - |
| 1787999021 | 30.56° C | 28% | 1015.8 hPa | - | - | - | - |
| 1787998962 | 30.56° C | 28% | 1015.8 hPa | - | - | - | - |
| 1787998903 | 30° C | 28% | 1015.7 hPa | - | - | - | - |
| 1787998842 | 30° C | 28% | 1015.7 hPa | - | - | - | - |
| 1787998782 | 31.11° C | 28% | 1015.6 hPa | - | - | - | - |
| 1787998722 | 31.11° C | 28% | 1015.6 hPa | - | - | - | - |
| 1787998662 | 31.67° C | 26% | 1015.5 hPa | - | - | - | - |
| 1787998602 | 31.67° C | 26% | 1015.5 hPa | - | - | - | - |
| 1787998542 | 31.67° C | 26% | 1015.5 hPa | - | - | - | - |
| 1787998482 | 31.67° C | 26% | 1015.5 hPa | - | - | - | - |
| 1787998422 | 31.67° C | 26% | 1015.5 hPa | - | - | - | - |
| 1787998361 | 31.67° C | 26% | 1015.5 hPa | - | - | - | - |
| 1787998302 | 31.11° C | 27% | 1015.5 hPa | - | - | - | - |
| 1787998242 | 31.11° C | 27% | 1015.5 hPa | - | - | - | - |
| 1787998182 | 32.22° C | 25% | 1015.6 hPa | - | - | - | - |
| 1787998122 | 32.22° C | 25% | 1015.6 hPa | - | - | - | - |
| 1787998063 | 31.11° C | 27% | 1015.8 hPa | - | - | - | - |
| 1787998003 | 31.11° C | 27% | 1015.8 hPa | - | - | - | - |
| 1787997943 | 30.56° C | 27% | 1015.8 hPa | - | - | - | - |
| 1787997882 | 30.56° C | 27% | 1015.8 hPa | - | - | - | - |
* Rain since midnight (hover to see other rain measurements)
** Current wind speed in m/s (hover to see current wind gust speed)